CCGS Tanu — CGBY — position and weather

sailwx.info

Track history (hours):
 
Tides and Currents Weather Stations Pressure Air Temp Water Temp Dewpoint Dewpoint Depression Visibility Wind Speed Wind Dir Waves Ship Positions

CCGS Tanu (Canada)

Ship's website: http://www.ccg-gcc.gc.ca/vessels-navires/details_e.asp?id=M-5

Last reported at 2014-Jul-30 23:09 UTC. Time now 2014-Jul-31 15:30 UTC.
Position N 50°03' W 127°50'.

Length 54.5 m; beam 9.7 m; draft 3.7 m.

Type: SAR. MMSI: 316091000.

Date/timePositionNaut miles runAvg speedWind from/ knotsBaromVisibWave heightAir tempDewpointWater temp
2014-Jul-30 23:09N 50°03' W 127°50'  
2014-Jul-24 16:09N 50°52' W 127°51'610.3
2014-Jul-24 15:33N 50°50' W 127°42'10 9.8
2014-Jul-24 14:33N 50°46' W 127°28'2 2.1
2014-Jul-24 13:29N 50°43' W 127°29'0 0.0
2014-Jul-24 12:23N 50°43' W 127°29'0 0.0
2014-Jul-24 11:29N 50°43' W 127°29'0 0.0
2014-Jul-24 10:29N 50°43' W 127°29'0 0.0
2014-Jul-24 09:29N 50°43' W 127°29'0 0.0
2014-Jul-24 08:29N 50°43' W 127°29'0 0.0
2014-Jul-24 07:29N 50°43' W 127°29'0 0.0
2014-Jul-24 06:29N 50°43' W 127°29'0 0.0
2014-Jul-24 05:29N 50°43' W 127°29'0 0.0
2014-Jul-24 04:29N 50°43' W 127°29'0 0.0
2014-Jul-24 03:29N 50°43' W 127°29'0 0.0
2014-Jul-24 02:29N 50°43' W 127°29'0 0.0
2014-Jul-24 01:29N 50°43' W 127°29'0 0.0
2014-Jul-24 00:29N 50°43' W 127°29'0 0.0
2014-Jul-23 23:29N 50°43' W 127°29'0 0.0
2014-Jul-23 22:29N 50°43' W 127°29'0 0.0
2014-Jul-23 21:29N 50°43' W 127°29'0 0.0
2014-Jul-23 20:29N 50°43' W 127°29'0 0.0
2014-Jul-23 19:29N 50°43' W 127°29'0 0.0
2014-Jul-23 14:29N 50°43' W 127°29'0 0.0
2014-Jul-23 13:29N 50°43' W 127°29'0 0.0
2014-Jul-23 12:11N 50°43' W 127°29'0 0.0
2014-Jul-23 11:23N 50°43' W 127°29'0 0.0
2014-Jul-23 10:29N 50°43' W 127°29'0 0.0
2014-Jul-23 09:29N 50°43' W 127°29'0 0.0
2014-Jul-23 08:29N 50°43' W 127°29'0 0.0
2014-Jul-23 07:29N 50°43' W 127°29'0 0.0
2014-Jul-23 06:29N 50°43' W 127°29'0 0.0
2014-Jul-23 05:29N 50°43' W 127°29'0 0.0
2014-Jul-23 04:29N 50°43' W 127°29'0 0.0
2014-Jul-23 03:23N 50°43' W 127°29'0 0.0
2014-Jul-23 01:29N 50°43' W 127°29'0 0.0
2014-Jul-23 00:23N 50°43' W 127°29'0 0.0
2014-Jul-22 23:23N 50°43' W 127°29'0 0.0
2014-Jul-22 22:23N 50°43' W 127°29'1 0.3
2014-Jul-22 18:32N 50°43' W 127°28'1 0.8
2014-Jul-22 17:34N 50°44' W 127°28'2 2.2
2014-Jul-22 16:34N 50°46' W 127°27'3 2.7
2014-Jul-22 15:33N 50°44' W 127°28'4 2.8
2014-Jul-22 14:10N 50°47' W 127°27'6 9.0
2014-Jul-22 13:33N 50°52' W 127°23'3 2.8
2014-Jul-22 12:33N 50°55' W 127°21'0 0.0
2014-Jul-22 11:33N 50°55' W 127°21'0 0.0
2014-Jul-22 10:33N 50°55' W 127°21'0 0.0
2014-Jul-22 09:33N 50°55' W 127°21'0 0.0
2014-Jul-22 08:33N 50°55' W 127°21'0 0.0
2014-Jul-22 07:33N 50°55' W 127°21'0 0.0
2014-Jul-22 06:33N 50°55' W 127°21'0 0.0
2014-Jul-22 05:27N 50°55' W 127°21'0 0.0
2014-Jul-22 04:33N 50°55' W 127°21'0 0.0
2014-Jul-22 03:33N 50°55' W 127°21'0 0.0
2014-Jul-22 02:33N 50°55' W 127°21'0 0.0
2014-Jul-22 01:33N 50°55' W 127°21'0 0.0
2014-Jul-22 00:33N 50°55' W 127°21'6 5.6
2014-Jul-21 23:33N 50°57' W 127°29'7 7.3
2014-Jul-21 22:32N 51°02' W 127°38'7 6.6
2014-Jul-21 21:33N 51°05' W 127°47'7 6.4
2014-Jul-21 20:31N 51°12' W 127°51'2 9.6
2014-Jul-21 20:18N 51°14' W 127°52'10 9.1
2014-Jul-21 19:09N 51°24' W 127°50'0 0.1
2014-Jul-21 18:28N 51°24' W 127°50'10 9.3
2014-Jul-21 17:24N 51°14' W 127°51'7 8.6
2014-Jul-21 16:33N 51°07' W 127°47'1110.7
2014-Jul-21 15:33N 50°60' W 127°35'9 9.3
2014-Jul-21 14:34N 50°54' W 127°22'1 1.0
2014-Jul-21 13:32N 50°55' W 127°21'0 0.0
2014-Jul-21 12:32N 50°55' W 127°21'0 0.0
2014-Jul-21 11:32N 50°55' W 127°21'0 0.0
2014-Jul-21 10:26N 50°55' W 127°21'0 0.0
2014-Jul-21 09:32N 50°55' W 127°21'0 0.0
2014-Jul-21 08:26N 50°55' W 127°21'0 0.0
2014-Jul-21 07:32N 50°55' W 127°21'0 0.0
2014-Jul-21 06:32N 50°55' W 127°21'0 0.0
2014-Jul-21 05:32N 50°55' W 127°21'0 0.0
2014-Jul-21 04:32N 50°55' W 127°21'0 0.0
2014-Jul-21 03:32N 50°55' W 127°21'0 0.0
2014-Jul-21 02:32N 50°55' W 127°21'0 0.0
2014-Jul-21 01:32N 50°55' W 127°21'5 4.8
2014-Jul-21 00:33N 50°57' W 127°28'1010.1
2014-Jul-20 23:33N 51°03' W 127°40'  
Track history (hours):
 
Tides and Currents Weather Stations Pressure Air Temp Water Temp Dewpoint Dewpoint Depression Visibility Wind Speed Wind Dir Waves Ship Positions

CCGS Tanu (Canada)

Ship's website: http://www.ccg-gcc.gc.ca/vessels-navires/details_e.asp?id=M-5

Last reported at 2014-Jul-30 23:09 UTC. Time now 2014-Jul-31 15:30 UTC.
Position N 50°03' W 127°50'.

Length 54.5 m; beam 9.7 m; draft 3.7 m.

Type: SAR. MMSI: 316091000.

Date/timePositionNaut miles runAvg speedWind from/ knotsBaromVisibWave heightAir tempDewpointWater temp
2014-Jul-30 23:09N 50°03' W 127°50'  
2014-Jul-24 16:09N 50°52' W 127°51'610.3
2014-Jul-24 15:33N 50°50' W 127°42'10 9.8
2014-Jul-24 14:33N 50°46' W 127°28'2 2.1
2014-Jul-24 13:29N 50°43' W 127°29'0 0.0
2014-Jul-24 12:23N 50°43' W 127°29'0 0.0
2014-Jul-24 11:29N 50°43' W 127°29'0 0.0
2014-Jul-24 10:29N 50°43' W 127°29'0 0.0
2014-Jul-24 09:29N 50°43' W 127°29'0 0.0
2014-Jul-24 08:29N 50°43' W 127°29'0 0.0
2014-Jul-24 07:29N 50°43' W 127°29'0 0.0
2014-Jul-24 06:29N 50°43' W 127°29'0 0.0
2014-Jul-24 05:29N 50°43' W 127°29'0 0.0
2014-Jul-24 04:29N 50°43' W 127°29'0 0.0
2014-Jul-24 03:29N 50°43' W 127°29'0 0.0
2014-Jul-24 02:29N 50°43' W 127°29'0 0.0
2014-Jul-24 01:29N 50°43' W 127°29'0 0.0
2014-Jul-24 00:29N 50°43' W 127°29'0 0.0
2014-Jul-23 23:29N 50°43' W 127°29'0 0.0
2014-Jul-23 22:29N 50°43' W 127°29'0 0.0
2014-Jul-23 21:29N 50°43' W 127°29'0 0.0
2014-Jul-23 20:29N 50°43' W 127°29'0 0.0
2014-Jul-23 19:29N 50°43' W 127°29'0 0.0
2014-Jul-23 14:29N 50°43' W 127°29'0 0.0
2014-Jul-23 13:29N 50°43' W 127°29'0 0.0
2014-Jul-23 12:11N 50°43' W 127°29'0 0.0
2014-Jul-23 11:23N 50°43' W 127°29'0 0.0
2014-Jul-23 10:29N 50°43' W 127°29'0 0.0
2014-Jul-23 09:29N 50°43' W 127°29'0 0.0
2014-Jul-23 08:29N 50°43' W 127°29'0 0.0
2014-Jul-23 07:29N 50°43' W 127°29'0 0.0
2014-Jul-23 06:29N 50°43' W 127°29'0 0.0
2014-Jul-23 05:29N 50°43' W 127°29'0 0.0
2014-Jul-23 04:29N 50°43' W 127°29'0 0.0
2014-Jul-23 03:23N 50°43' W 127°29'0 0.0
2014-Jul-23 01:29N 50°43' W 127°29'0 0.0
2014-Jul-23 00:23N 50°43' W 127°29'0 0.0
2014-Jul-22 23:23N 50°43' W 127°29'0 0.0
2014-Jul-22 22:23N 50°43' W 127°29'1 0.3
2014-Jul-22 18:32N 50°43' W 127°28'1 0.8
2014-Jul-22 17:34N 50°44' W 127°28'2 2.2
2014-Jul-22 16:34N 50°46' W 127°27'3 2.7
2014-Jul-22 15:33N 50°44' W 127°28'4 2.8
2014-Jul-22 14:10N 50°47' W 127°27'6 9.0
2014-Jul-22 13:33N 50°52' W 127°23'3 2.8
2014-Jul-22 12:33N 50°55' W 127°21'0 0.0
2014-Jul-22 11:33N 50°55' W 127°21'0 0.0
2014-Jul-22 10:33N 50°55' W 127°21'0 0.0
2014-Jul-22 09:33N 50°55' W 127°21'0 0.0
2014-Jul-22 08:33N 50°55' W 127°21'0 0.0
2014-Jul-22 07:33N 50°55' W 127°21'0 0.0
2014-Jul-22 06:33N 50°55' W 127°21'0 0.0
2014-Jul-22 05:27N 50°55' W 127°21'0 0.0
2014-Jul-22 04:33N 50°55' W 127°21'0 0.0
2014-Jul-22 03:33N 50°55' W 127°21'0 0.0
2014-Jul-22 02:33N 50°55' W 127°21'0 0.0
2014-Jul-22 01:33N 50°55' W 127°21'0 0.0
2014-Jul-22 00:33N 50°55' W 127°21'6 5.6
2014-Jul-21 23:33N 50°57' W 127°29'7 7.3
2014-Jul-21 22:32N 51°02' W 127°38'7 6.6
2014-Jul-21 21:33N 51°05' W 127°47'7 6.4
2014-Jul-21 20:31N 51°12' W 127°51'2 9.6
2014-Jul-21 20:18N 51°14' W 127°52'10 9.1
2014-Jul-21 19:09N 51°24' W 127°50'0 0.1
2014-Jul-21 18:28N 51°24' W 127°50'10 9.3
2014-Jul-21 17:24N 51°14' W 127°51'7 8.6
2014-Jul-21 16:33N 51°07' W 127°47'1110.7
2014-Jul-21 15:33N 50°60' W 127°35'9 9.3
2014-Jul-21 14:34N 50°54' W 127°22'1 1.0
2014-Jul-21 13:32N 50°55' W 127°21'0 0.0
2014-Jul-21 12:32N 50°55' W 127°21'0 0.0
2014-Jul-21 11:32N 50°55' W 127°21'0 0.0
2014-Jul-21 10:26N 50°55' W 127°21'0 0.0
2014-Jul-21 09:32N 50°55' W 127°21'0 0.0
2014-Jul-21 08:26N 50°55' W 127°21'0 0.0
2014-Jul-21 07:32N 50°55' W 127°21'0 0.0
2014-Jul-21 06:32N 50°55' W 127°21'0 0.0
2014-Jul-21 05:32N 50°55' W 127°21'0 0.0
2014-Jul-21 04:32N 50°55' W 127°21'0 0.0
2014-Jul-21 03:32N 50°55' W 127°21'0 0.0
2014-Jul-21 02:32N 50°55' W 127°21'0 0.0
2014-Jul-21 01:32N 50°55' W 127°21'5 4.8
2014-Jul-21 00:33N 50°57' W 127°28'1010.1
2014-Jul-20 23:33N 51°03' W 127°40'  

Dump ship's entire track history